Simultaneous Nadir Overpasses (SNOs) Predictions

Prediction of SNOs between NOAA-20 and NOAA-19 Satellite Orbit:

Table of predicted SNOs for the next 14.0 days since TLE Epoch: 6/1/2018
Index Date (NOAA-20) Time (NOAA-20) Lat,Lon (NOAA-20) SZA (NOAA-20 ) Date (NOAA-19) Time (NOAA-19) Lat,Lon (NOAA-19) SZA (NOAA-19 ) Distance(km) Time Diff (sec)
1 06/04/2018 09:45:53 80.54, -11.72 60.99 06/04/2018 09:44:39 80.55, -11.74 61.04 1.13 74
2 06/04/2018 10:36:38 -80.54, 155.51 119.00 06/04/2018 10:35:45 -80.55, 155.59 118.98 1.69 53
3 06/04/2018 11:27:23 80.54, -37.14 60.99 06/04/2018 11:26:40 80.55, -37.19 61.03 1.25 43
4 06/04/2018 12:18:08 -80.55, 130.09 119.00 06/04/2018 12:17:46 -80.56, 130.15 118.99 1.34 22
5 06/04/2018 13:08:53 80.55, -62.57 61.00 06/04/2018 13:08:41 80.55, -62.63 61.01 1.46 12
6 06/04/2018 13:59:38 -80.55, 104.67 119.00 06/04/2018 13:59:47 -80.56, 104.70 119.00 1.02 9
7 06/04/2018 14:50:23 80.55, -87.99 61.00 06/04/2018 14:50:42 80.56, -88.07 61.00 1.75 19
8 06/04/2018 15:41:08 -80.55, 79.25 119.00 06/04/2018 15:41:48 -80.56, 79.26 119.02 0.79 40
9 06/04/2018 16:31:53 80.55,-113.41 61.00 06/04/2018 16:32:43 80.56,-113.52 60.99 2.07 50




NCC Satellite Simultaneous Nadir Overpasses (SNOs) Prediction Service
